Time,TemperatureF,DewpointF,PressureIn,WindDirection,WindDirectionDegrees,WindSpeedMPH,WindSpeedGustMPH,Humidity,HourlyPrecipIn,Conditions,Clouds,dailyrainin,SoftwareType,DateUTC
2013-05-24 00:02:00,74.0,72.0,30.08,ESE,123,0.0,0.0,95,0.00,,,0.02,,2013-05-24 05:02:00,
2013-05-24 00:12:00,74.0,72.0,30.08,ESE,123,0.0,0.0,95,0.00,,,0.02,,2013-05-24 05:12:00,
2013-05-24 00:22:00,74.0,72.0,30.07,ESE,123,0.0,0.0,95,0.00,,,0.02,,2013-05-24 05:22:00,
2013-05-24 00:32:00,73.0,71.0,30.07,ESE,123,0.0,0.0,95,0.00,,,0.02,,2013-05-24 05:32:00,
2013-05-24 00:42:00,73.0,71.0,30.07,ESE,123,0.0,0.0,95,0.00,,,0.02,,2013-05-24 05:42:00,
2013-05-24 00:52:00,73.0,71.0,30.06,ESE,123,0.0,1.0,95,0.00,,,0.02,,2013-05-24 05:52:00,
2013-05-24 01:02:00,73.0,71.0,30.07,ESE,123,0.0,0.0,95,0.00,,,0.02,,2013-05-24 06:02:00,
2013-05-24 01:12:00,73.0,71.0,30.07,ESE,123,0.0,0.0,95,0.00,,,0.02,,2013-05-24 06:12:00,
2013-05-24 01:21:00,73.0,72.0,30.06,ESE,123,0.0,0.0,96,0.00,,,0.02,,2013-05-24 06:21:00,
2013-05-24 01:32:00,73.0,72.0,30.06,ESE,123,0.0,0.0,96,0.00,,,0.02,,2013-05-24 06:32:00,
2013-05-24 01:41:00,73.0,72.0,30.06,ESE,123,0.0,0.0,96,0.00,,,0.02,,2013-05-24 06:41:00,
2013-05-24 01:52:00,72.0,71.0,30.06,ESE,123,0.0,0.0,96,0.00,,,0.02,,2013-05-24 06:52:00,
2013-05-24 02:01:00,72.0,71.0,30.06,ESE,123,0.0,1.0,96,0.00,,,0.02,,2013-05-24 07:01:00,
2013-05-24 02:11:00,72.0,71.0,30.06,ESE,123,0.0,1.0,96,0.00,,,0.02,,2013-05-24 07:11:00,
2013-05-24 02:22:00,72.0,71.0,30.06,ESE,123,0.0,0.0,96,0.00,,,0.02,,2013-05-24 07:22:00,
2013-05-24 02:31:00,72.0,71.0,30.05,ESE,123,0.0,0.0,96,0.00,,,0.02,,2013-05-24 07:31:00,
2013-05-24 02:42:00,72.0,71.0,30.05,ESE,123,0.0,0.0,96,0.00,,,0.02,,2013-05-24 07:42:00,
2013-05-24 02:52:00,72.0,71.0,30.04,ESE,123,0.0,0.0,97,0.00,,,0.02,,2013-05-24 07:52:00,
2013-05-24 03:02:00,72.0,71.0,30.03,ESE,123,0.0,0.0,97,0.00,,,0.02,,2013-05-24 08:02:00,
2013-05-24 03:11:00,72.0,71.0,30.03,ESE,123,0.0,0.0,97,0.00,,,0.02,,2013-05-24 08:11:00,
2013-05-24 03:22:00,72.0,71.0,30.04,ESE,123,0.0,0.0,97,0.00,,,0.02,,2013-05-24 08:22:00,
2013-05-24 03:32:00,72.0,71.0,30.04,ESE,123,0.0,1.0,97,0.00,,,0.02,,2013-05-24 08:32:00,
2013-05-24 03:42:00,72.0,71.0,30.04,ESE,123,0.0,1.0,97,0.00,,,0.02,,2013-05-24 08:42:00,
2013-05-24 03:52:00,72.0,71.0,30.04,ESE,123,0.0,0.0,97,0.00,,,0.02,,2013-05-24 08:52:00,
2013-05-24 04:01:00,72.0,71.0,30.05,ESE,123,0.0,0.0,97,0.00,,,0.02,,2013-05-24 09:01:00,
2013-05-24 04:11:00,72.0,71.0,30.05,ESE,123,0.0,0.0,97,0.00,,,0.02,,2013-05-24 09:11:00,
2013-05-24 04:21:00,71.0,70.0,30.04,ESE,123,0.0,0.0,97,0.00,,,0.02,,2013-05-24 09:21:00,
2013-05-24 04:32:00,71.0,70.0,30.04,ESE,123,0.0,0.0,97,0.00,,,0.01,,2013-05-24 09:32:00,
2013-05-24 04:42:00,71.0,70.0,30.04,ESE,123,0.0,0.0,97,0.00,,,0.01,,2013-05-24 09:42:00,
2013-05-24 04:53:00,71.0,70.0,30.05,ESE,123,0.0,0.0,97,0.00,,,0.01,,2013-05-24 09:53:00,
2013-05-24 05:02:00,71.0,70.0,30.05,ESE,123,0.0,0.0,97,0.00,,,0.01,,2013-05-24 10:02:00,
2013-05-24 05:12:00,71.0,70.0,30.05,ESE,123,0.0,0.0,97,0.00,,,0.01,,2013-05-24 10:12:00,
2013-05-24 05:22:00,71.0,70.0,30.06,ESE,123,0.0,0.0,97,0.00,,,0.01,,2013-05-24 10:22:00,
2013-05-24 05:32:00,71.0,70.0,30.06,ESE,123,0.0,0.0,97,0.00,,,0.01,,2013-05-24 10:32:00,
2013-05-24 05:42:00,71.0,70.0,30.06,ESE,123,0.0,0.0,97,0.00,,,0.01,,2013-05-24 10:42:00,
2013-05-24 05:52:00,71.0,70.0,30.06,ESE,123,0.0,0.0,97,0.00,,,0.01,,2013-05-24 10:52:00,
2013-05-24 06:02:00,70.0,69.0,30.07,ESE,123,0.0,0.0,97,0.00,,,0.01,,2013-05-24 11:02:00,
2013-05-24 06:12:00,70.0,69.0,30.07,ESE,123,0.0,0.0,97,0.00,,,0.01,,2013-05-24 11:12:00,
2013-05-24 06:22:00,70.0,69.0,30.08,ESE,123,0.0,0.0,97,0.00,,,0.01,,2013-05-24 11:22:00,
2013-05-24 06:32:00,70.0,69.0,30.07,ESE,123,0.0,0.0,97,0.00,,,0.01,,2013-05-24 11:32:00,
2013-05-24 06:42:00,70.0,69.0,30.07,ESE,123,0.0,0.0,97,0.00,,,0.01,,2013-05-24 11:42:00,
2013-05-24 06:52:00,70.0,69.0,30.08,ESE,123,0.0,0.0,97,0.00,,,0.01,,2013-05-24 11:52:00,
2013-05-24 07:02:00,70.0,69.0,30.09,ESE,123,0.0,0.0,97,0.00,,,0.01,,2013-05-24 12:02:00,
2013-05-24 07:11:00,70.0,69.0,30.09,ESE,123,0.0,0.0,97,0.00,,,0.01,,2013-05-24 12:11:00,
2013-05-24 07:21:00,71.0,70.0,30.09,ESE,123,0.0,0.0,98,0.00,,,0.01,,2013-05-24 12:21:00,
2013-05-24 07:32:00,71.0,70.0,30.09,ESE,123,0.0,0.0,98,0.00,,,0.01,,2013-05-24 12:32:00,
2013-05-24 07:42:00,71.0,70.0,30.09,ESE,123,0.0,0.0,98,0.00,,,0.01,,2013-05-24 12:42:00,
2013-05-24 07:52:00,71.0,70.0,30.11,ESE,123,0.0,0.0,98,0.00,,,0.01,,2013-05-24 12:52:00,
2013-05-24 08:02:00,72.0,71.0,30.10,ESE,123,0.0,1.0,98,0.00,,,0.01,,2013-05-24 13:02:00,
2013-05-24 08:11:00,72.0,71.0,30.10,ESE,123,0.0,1.0,98,0.00,,,0.01,,2013-05-24 13:11:00,
2013-05-24 08:21:00,73.0,72.0,30.11,ESE,123,0.0,0.0,98,0.00,,,0.01,,2013-05-24 13:21:00,
2013-05-24 08:32:00,73.0,73.0,30.12,ESE,123,0.0,0.0,99,0.00,,,0.01,,2013-05-24 13:32:00,
2013-05-24 08:41:00,73.0,73.0,30.12,ESE,123,0.0,0.0,99,0.00,,,0.01,,2013-05-24 13:41:00,
2013-05-24 08:52:00,75.0,75.0,30.13,ESE,123,0.0,1.0,99,0.00,,,0.01,,2013-05-24 13:52:00,
2013-05-24 09:01:00,76.0,76.0,30.13,ESE,123,0.0,0.0,99,0.00,,,0.01,,2013-05-24 14:01:00,
2013-05-24 09:11:00,76.0,76.0,30.13,ESE,123,0.0,0.0,99,0.00,,,0.01,,2013-05-24 14:11:00,
2013-05-24 09:21:00,77.0,77.0,30.13,ENE,78,0.0,0.0,99,0.00,,,0.01,,2013-05-24 14:21:00,
2013-05-24 09:32:00,77.0,77.0,30.14,ENE,78,0.0,0.0,99,0.00,,,0.01,,2013-05-24 14:32:00,
2013-05-24 09:42:00,77.0,77.0,30.14,ENE,78,0.0,0.0,99,0.00,,,0.01,,2013-05-24 14:42:00,
2013-05-24 09:52:00,78.0,78.0,30.14,ENE,78,0.0,0.0,99,0.00,,,0.01,,2013-05-24 14:52:00,
2013-05-24 10:02:00,78.0,77.0,30.14,ENE,78,0.0,0.0,98,0.01,,,0.02,,2013-05-24 15:02:00,
2013-05-24 10:11:00,78.0,77.0,30.14,ENE,78,0.0,0.0,98,0.01,,,0.02,,2013-05-24 15:11:00,
2013-05-24 10:21:00,79.0,78.0,30.14,ENE,78,0.0,1.0,97,0.01,,,0.02,,2013-05-24 15:21:00,
2013-05-24 10:32:00,80.0,78.0,30.14,ENE,78,0.0,1.0,95,0.01,,,0.02,,2013-05-24 15:32:00,
2013-05-24 10:43:00,80.0,78.0,30.14,ENE,78,0.0,1.0,95,0.01,,,0.02,,2013-05-24 15:43:00,
2013-05-24 10:52:00,82.0,79.0,30.14,ENE,75,0.0,2.0,92,0.01,,,0.02,,2013-05-24 15:52:00,
2013-05-24 11:03:00,84.0,78.0,30.15,East,88,0.0,1.0,83,0.00,,,0.02,,2013-05-24 16:03:00,
2013-05-24 11:12:00,84.0,78.0,30.15,East,88,0.0,1.0,83,0.00,,,0.02,,2013-05-24 16:12:00,
2013-05-24 11:22:00,86.0,79.0,30.15,East,88,0.0,1.0,80,0.00,,,0.02,,2013-05-24 16:22:00,
2013-05-24 11:32:00,86.0,78.0,30.15,ESE,111,0.0,1.0,78,0.00,,,0.02,,2013-05-24 16:32:00,
2013-05-24 11:42:00,86.0,78.0,30.15,ESE,111,0.0,1.0,78,0.00,,,0.02,,2013-05-24 16:42:00,
2013-05-24 11:52:00,85.0,78.0,30.16,ESE,113,0.0,0.0,80,0.00,,,0.02,,2013-05-24 16:52:00,
2013-05-24 12:02:00,85.0,78.0,30.16,SSE,163,0.0,1.0,79,0.00,,,0.02,,2013-05-24 17:02:00,
2013-05-24 12:12:00,85.0,78.0,30.16,SSE,163,0.0,1.0,79,0.00,,,0.02,,2013-05-24 17:12:00,
2013-05-24 12:22:00,86.0,79.0,30.16,SE,134,0.0,1.0,81,0.00,,,0.02,,2013-05-24 17:22:00,
2013-05-24 12:32:00,87.0,78.0,30.16,SE,140,0.0,1.0,75,0.00,,,0.02,,2013-05-24 17:32:00,
2013-05-24 12:42:00,87.0,78.0,30.16,SE,140,0.0,1.0,75,0.00,,,0.02,,2013-05-24 17:42:00,
2013-05-24 12:52:00,86.0,78.0,30.16,ESE,121,0.0,0.0,77,0.00,,,0.02,,2013-05-24 17:52:00,
2013-05-24 13:01:00,85.0,78.0,30.15,ESE,121,0.0,1.0,80,0.00,,,0.02,,2013-05-24 18:01:00,
2013-05-24 13:12:00,85.0,78.0,30.15,ESE,121,0.0,1.0,80,0.00,,,0.02,,2013-05-24 18:12:00,
2013-05-24 13:21:00,87.0,78.0,30.15,SE,128,0.0,1.0,76,0.00,,,0.02,,2013-05-24 18:21:00,
2013-05-24 13:32:00,88.0,78.0,30.14,ESE,118,0.0,1.0,73,0.01,,,0.03,,2013-05-24 18:32:00,
2013-05-24 13:42:00,88.0,78.0,30.14,ESE,118,0.0,1.0,73,0.01,,,0.03,,2013-05-24 18:42:00,
2013-05-24 13:52:00,89.0,79.0,30.14,ESE,107,0.0,1.0,73,0.01,,,0.03,,2013-05-24 18:52:00,
2013-05-24 14:01:00,89.0,79.0,30.14,SE,126,0.0,1.0,73,0.01,,,0.03,,2013-05-24 19:01:00,
2013-05-24 14:11:00,89.0,79.0,30.14,SE,126,0.0,1.0,73,0.01,,,0.03,,2013-05-24 19:11:00,
2013-05-24 14:21:00,88.0,78.0,30.13,ESE,114,0.0,1.0,72,0.01,,,0.03,,2013-05-24 19:21:00,
2013-05-24 14:32:00,89.0,78.0,30.13,SE,144,0.0,1.0,71,0.00,,,0.03,,2013-05-24 19:32:00,
2013-05-24 14:41:00,89.0,78.0,30.13,SE,144,0.0,1.0,71,0.00,,,0.03,,2013-05-24 19:41:00,
2013-05-24 14:52:00,89.0,78.0,30.12,East,95,0.0,1.0,71,0.00,,,0.03,,2013-05-24 19:52:00,
2013-05-24 15:02:00,88.0,79.0,30.11,East,96,0.0,1.0,75,0.00,,,0.03,,2013-05-24 20:02:00,
2013-05-24 15:11:00,88.0,79.0,30.11,East,96,0.0,1.0,75,0.00,,,0.03,,2013-05-24 20:11:00,
2013-05-24 15:21:00,88.0,78.0,30.10,East,98,0.0,1.0,72,0.00,,,0.03,,2013-05-24 20:21:00,
2013-05-24 15:32:00,87.0,78.0,30.11,ESE,117,0.0,1.0,74,0.00,,,0.03,,2013-05-24 20:32:00,
2013-05-24 15:41:00,87.0,78.0,30.11,ESE,117,0.0,1.0,74,0.00,,,0.03,,2013-05-24 20:41:00,
2013-05-24 15:52:00,84.0,76.0,30.09,ESE,111,0.0,1.0,78,0.00,,,0.03,,2013-05-24 20:52:00,
2013-05-24 16:01:00,84.0,76.0,30.09,ESE,111,0.0,1.0,78,0.00,,,0.03,,2013-05-24 21:01:00,
2013-05-24 16:11:00,84.0,76.0,30.09,ESE,111,0.0,1.0,78,0.00,,,0.03,,2013-05-24 21:11:00,
2013-05-24 16:21:00,84.0,76.0,30.09,ESE,111,0.0,1.0,78,0.00,,,0.03,,2013-05-24 21:21:00,
2013-05-24 16:32:00,84.0,76.0,30.09,ESE,111,0.0,1.0,78,0.00,,,0.03,,2013-05-24 21:32:00,